Theta_e
325 332 332 333 335 335 336 338 341 339 338 338 341 340 338 338 336 333 332 329 329 329 328 327 327 324 322 321 319 317 316 314 313 313 314 315 314 314 314 314 312 312 312 313
328 332 333 335 334 337 338 341 342 338 336 338 338 339 335 333 332 335 334 332 330 328 329 328 327 326 326 325 323 319 318 315 313 314 313 314 314 314 313 313 313 313 312 313
326 331 333 334 334 337 338 339 341 342 338 336 337 339 336 334 332 331 332 332 330 329 330 329 328 327 325 323 324 321 319 315 313 312 313 315 315 315 315 315 314 313 311 311
331 330 334 334 335 334 336 333 339 341 340 344 335 344 336 334 335 332 332 331 331 331 330 330 329 327 327 326 325 322 319 316 314 312 313 314 315 315 314 315 314 313 311 312
332 331 332 333 333 333 336 336 339 337 338 337 334 338 335 335 334 335 333 332 331 329 328 329 328 328 328 327 324 321 319 316 313 312 312 313 315 314 314 315 315 314 313 312
332 332 329 333 333 333 333 334 332 331 332 337 334 334 337 336 334 333 331 331 331 330 328 327 327 328 327 326 322 321 318 317 313 312 312 312 314 315 315 315 316 314 314 314
332 330 329 328 334 330 334 336 336 338 338 340 333 331 333 329 330 331 330 331 330 330 329 329 328 328 327 325 321 319 318 317 314 312 312 313 314 316 316 316 315 315 314 314
335 335 329 327 328 332 333 328 330 332 332 337 331 334 331 326 327 329 329 329 328 329 329 328 327 327 326 323 321 319 318 317 314 313 312 312 313 315 315 315 315 315 314 313
336 335 329 326 326 327 330 333 327 335 332 335 336 332 327 324 327 328 328 327 325 325 326 326 325 324 321 321 321 318 317 316 314 313 312 312 313 316 315 313 312 313 312 313
331 336 327 329 325 325 330 326 332 331 337 336 334 332 331 326 322 321 321 320 320 321 322 322 322 322 322 319 318 318 317 316 313 313 312 313 313 314 313 312 313 312 311 311
330 333 328 326 327 327 328 329 330 331 333 335 333 333 323 320 321 323 322 322 321 321 321 320 317 316 316 317 315 315 315 315 313 313 312 312 313 313 313 312 313 312 312 312
328 329 329 325 325 322 324 328 329 331 335 331 331 331 322 323 323 322 322 322 321 320 320 319 318 318 317 317 315 314 313 312 312 312 312 312 312 313 314 313 314 312 312 313
330 330 330 328 326 323 324 323 326 328 329 331 328 329 323 324 323 323 323 322 321 320 320 317 316 315 315 316 317 316 314 312 313 312 312 311 313 313 314 314 313 312 313 313
331 331 334 333 328 324 324 323 320 324 324 328 325 327 325 325 325 323 322 320 319 316 313 312 312 312 312 313 315 316 315 314 314 313 311 311 313 313 313 313 313 312 313 313
329 328 325 326 324 325 326 325 323 324 321 325 327 327 327 325 325 322 319 316 312 311 311 311 312 312 312 313 313 314 316 315 314 313 313 311 312 314 314 313 312 312 315 314
326 325 326 327 324 325 327 326 326 327 326 327 327 327 321 321 323 317 312 311 311 312 311 312 312 312 313 313 313 313 314 316 316 314 314 313 313 314 313 313 313 311 312 315
329 327 328 330 326 327 330 328 328 328 327 327 328 323 319 319 316 311 312 312 313 313 313 313 313 313 313 313 313 312 312 313 315 313 313 313 313 314 313 313 314 313 312 313
331 332 332 330 329 334 330 326 326 326 322 322 320 318 317 315 313 313 312 313 313 313 313 312 311 312 313 312 313 311 312 312 313 314 313 314 314 314 313 313 314 313 313 311
333 334 336 337 334 331 328 326 326 326 325 318 317 318 312 311 312 310 312 312 314 314 312 312 312 312 312 312 313 312 312 312 312 313 315 314 314 314 314 314 313 312 313 314
330 332 336 332 337 336 330 322 321 321 327 316 316 314 312 313 312 312 312 312 313 313 311 312 312 311 312 311 312 313 312 311 311 312 313 314 315 315 315 314 313 313 314 313
334 333 335 334 335 331 321 319 321 327 323 315 315 313 315 315 313 313 313 313 312 312 311 311 311 311 312 311 311 312 312 311 312 312 313 315 315 314 314 314 314 314 314 315
331 333 333 333 335 331 318 318 322 318 317 314 314 313 314 314 314 314 314 313 312 312 311 311 311 311 311 311 311 312 311 311 311 312 312 312 311 312 313 313 314 314 314 314
331 328 329 327 327 319 316 315 315 315 313 313 313 313 313 313 314 313 313 312 311 311 310 310 311 310 311 310 309 311 310 310 311 310 310 311 312 312 312 312 313 315 315 314
325 320 325 323 320 316 315 315 315 315 314 313 312 312 313 314 313 313 312 310 310 309 307 308 309 310 308 306 305 305 305 305 308 310 310 310 309 310 312 312 312 312 315 315
326 323 323 323 319 318 315 315 315 314 312 312 312 312 313 312 311 310 309 309 308 307 306 307 306 304 304 303 303 303 303 304 303 306 309 309 308 308 310 311 311 310 311 313
324 326 325 323 321 319 319 317 315 315 314 313 313 312 311 309 309 308 308 307 306 305 307 304 303 303 302 302 302 302 302 303 304 305 307 307 306 306 307 309 310 310 308 309
Wind_Speed
1 3 3 4 5 3 6 6 7 5 4 8 8 6 3 3 4 8 7 6 8 9 10 11 7 11 7 10 11 9 5 5 7 8 8 8 10 10 8 7 8 9 9 9
3 2 2 8 10 10 10 14 6 6 4 4 6 5 4 3 2 3 9 11 9 5 5 6 9 9 11 18 15 13 9 5 6 5 6 6 7 7 9 9 9 9 11 9
2 1 4 3 6 6 5 4 10 7 10 6 6 3 1 4 3 3 5 8 10 9 7 6 10 14 17 20 15 13 9 7 5 6 6 6 7 8 7 10 9 9 9 9
1 2 2 4 2 1 5 4 13 16 10 2 2 1 2 3 5 5 6 7 10 10 8 6 12 15 20 16 14 13 11 9 5 7 6 7 8 10 10 10 10 9 9 10
2 3 4 3 5 2 4 6 12 12 6 6 3 3 3 3 1 4 3 7 9 9 9 9 12 15 16 13 14 12 11 9 6 7 7 8 9 11 11 11 11 9 9 9
3 2 5 3 8 7 14 14 10 5 3 3 2 2 3 1 3 5 4 4 7 9 10 13 13 11 13 11 9 9 10 8 7 7 8 10 11 12 12 12 10 9 10 9
3 4 3 5 6 2 5 7 2 4 4 1 2 2 2 4 3 4 9 9 6 6 10 10 9 11 11 10 8 8 9 9 7 7 8 10 12 10 11 10 10 11 12 11
3 4 6 6 2 1 8 3 4 7 6 1 2 2 3 6 4 3 5 6 5 5 6 8 10 11 11 9 10 10 12 9 7 7 8 10 13 9 9 9 9 9 10 10
3 2 2 7 5 2 3 3 2 4 1 3 2 3 1 4 8 9 12 14 15 14 11 9 10 8 8 11 12 9 10 10 8 7 9 10 11 10 7 8 7 6 7 7
3 3 4 3 2 10 4 5 2 1 2 2 2 2 2 12 12 12 15 15 15 14 15 15 19 19 16 13 10 10 10 11 11 10 8 10 12 11 9 8 8 9 9 10
4 1 2 0 6 6 1 1 4 3 2 2 1 3 8 6 7 9 10 12 13 14 14 15 21 23 19 15 11 11 10 13 15 14 9 11 13 13 14 11 13 11 11 11
2 3 3 4 4 3 3 4 2 3 3 2 2 2 4 5 6 7 10 11 11 11 13 16 17 18 20 19 16 12 12 14 19 20 16 12 15 14 18 16 14 14 13 11
4 2 4 3 3 2 4 4 3 4 1 1 3 3 3 3 6 9 11 12 12 14 16 16 15 21 21 21 20 18 15 12 12 19 20 18 15 16 17 18 16 14 13 10
5 3 1 2 4 3 3 4 2 1 0 3 0 4 1 6 9 10 10 12 11 10 13 14 17 21 22 23 23 21 17 16 14 11 17 22 19 18 14 20 17 12 12 10
3 4 5 9 6 5 5 5 6 5 3 2 3 2 5 8 8 8 8 8 10 11 13 13 13 18 20 22 24 24 21 16 12 10 12 22 19 17 10 19 14 11 9 8
2 4 4 5 4 5 7 6 9 8 6 5 2 1 5 5 1 5 7 7 9 11 13 14 17 19 20 21 22 24 24 22 18 17 14 20 19 17 12 17 14 12 10 8
3 6 4 4 6 3 3 2 3 4 3 2 3 0 6 4 4 6 7 8 10 11 13 14 18 19 19 19 20 23 24 23 19 16 16 19 21 16 13 17 17 10 12 10
8 6 2 4 5 4 3 5 4 5 5 4 3 2 2 3 6 8 8 9 10 11 12 16 18 18 17 17 18 21 21 21 22 19 16 14 17 15 14 11 15 13 7 15
2 4 3 4 5 2 4 5 5 4 3 4 2 1 2 4 6 4 7 6 10 12 13 13 15 16 16 17 18 18 19 21 22 21 15 13 15 13 14 12 15 15 13 11
7 5 2 3 3 4 3 2 1 3 5 4 2 2 4 5 7 7 8 10 15 14 13 12 14 16 14 16 17 18 20 20 22 22 20 11 13 13 13 12 16 19 12 12
1 2 1 3 3 1 1 2 6 4 3 3 3 4 5 6 7 12 15 15 14 13 14 15 14 15 15 13 15 17 18 20 21 21 20 12 10 14 12 14 13 13 17 13
2 3 2 2 3 3 3 5 3 4 3 4 5 6 8 10 13 13 13 15 15 14 16 17 16 16 17 14 14 17 18 19 18 19 18 15 15 12 7 10 17 13 14 16
3 1 1 2 1 3 3 8 8 6 5 3 4 6 5 10 12 12 12 14 13 13 14 16 16 15 14 15 15 16 18 20 18 17 16 16 15 13 9 12 17 12 12 15
3 2 2 4 4 7 7 4 5 5 5 3 4 6 6 9 10 9 9 11 13 13 14 16 16 16 16 17 16 15 17 19 18 17 15 14 15 15 10 7 8 7 11 14
1 7 5 1 4 4 5 6 5 6 4 6 5 4 4 5 7 8 9 11 12 14 16 14 13 14 15 17 17 17 18 19 20 17 16 14 14 15 14 12 10 9 11 11
5 5 4 2 9 3 6 7 4 4 3 2 2 1 3 5 8 10 10 12 14 15 13 13 15 16 18 19 19 19 19 18 18 17 15 14 15 15 13 13 12 8 9 13
Wind_Direction
140 218 262 39 207 147 131 140 119 107 124 69 88 108 49 222 202 220 222 196 223 224 223 232 199 195 226 262 268 269 286 317 341 354 356 349 347 337 327 322 326 333 330 331
152 263 102 103 151 144 138 138 124 107 142 110 142 99 120 84 46 294 229 227 229 237 243 217 183 198 225 253 252 262 266 302 314 335 335 328 324 323 340 347 337 332 332 329
234 48 117 69 140 146 180 191 173 149 136 103 143 132 205 209 271 294 247 249 254 266 276 251 211 206 216 246 252 253 257 260 281 313 325 320 323 330 333 341 339 331 337 331
35 1 71 42 345 219 233 280 155 144 169 161 238 275 254 304 303 279 260 243 250 255 259 262 227 221 231 253 254 245 254 252 281 311 311 311 309 308 313 316 326 334 333 328
66 45 55 56 347 311 60 112 132 141 110 144 130 250 96 299 327 2 283 250 244 244 247 264 253 242 245 257 250 245 246 243 272 290 295 300 301 303 302 312 320 324 326 332
85 61 49 66 26 108 123 113 100 108 136 220 95 288 92 27 341 336 349 319 267 249 245 257 274 262 254 269 262 237 241 242 265 288 293 300 306 313 313 320 315 320 323 322
122 45 83 73 109 183 150 164 179 222 213 335 115 187 61 326 309 300 331 330 326 278 250 261 272 254 264 263 246 239 219 237 258 296 299 306 316 314 315 325 320 315 318 319
189 182 22 11 20 304 157 287 289 287 285 99 157 156 86 342 286 308 307 309 327 331 294 286 295 305 288 267 262 227 235 244 260 300 309 311 324 320 328 338 331 324 319 319
138 125 316 37 50 314 156 243 45 108 103 214 127 152 182 44 51 12 12 8 360 353 347 325 305 308 300 282 267 255 247 251 268 294 310 307 315 315 319 332 334 325 338 326
92 132 18 354 178 60 39 117 231 151 232 241 153 187 41 347 358 20 27 20 15 21 25 15 358 337 324 307 291 288 259 253 265 274 294 288 302 303 293 300 310 309 324 321
100 26 44 37 25 354 5 95 65 91 350 292 221 128 360 357 35 45 43 37 28 23 21 22 16 358 347 328 316 308 293 283 279 273 284 276 293 287 278 276 289 299 297 311
56 93 76 74 34 56 69 44 346 290 157 62 329 119 30 56 48 31 23 6 2 11 7 8 7 341 357 349 334 311 300 290 285 287 288 271 286 287 279 277 281 303 293 287
172 74 134 157 162 126 49 25 63 90 107 147 272 131 68 58 15 8 3 9 9 13 8 359 351 355 352 348 343 325 304 317 296 306 293 285 275 280 275 283 281 298 301 289
86 77 313 327 76 98 102 24 356 291 236 141 308 156 34 355 356 13 6 15 7 358 1 0 357 354 350 346 341 335 321 306 301 295 298 296 281 281 279 281 283 264 284 295
70 82 79 60 78 94 105 75 62 79 87 305 122 140 355 349 351 10 360 356 360 6 357 353 351 351 348 346 343 338 327 311 297 302 300 292 296 290 291 267 277 275 273 268
42 117 110 67 91 111 103 94 91 90 95 112 159 148 4 354 309 356 353 352 349 350 345 339 341 339 340 343 340 335 328 320 308 298 301 304 296 286 279 275 272 269 293 255
104 146 159 168 164 112 174 129 143 134 175 190 263 252 337 354 349 338 337 333 334 336 331 331 331 333 335 337 337 336 334 331 317 285 292 283 284 286 280 264 260 244 257 288
140 123 113 150 191 244 68 186 219 146 144 136 162 303 4 335 323 309 313 305 314 323 327 329 331 329 329 331 335 339 341 341 331 303 275 271 276 284 286 278 268 265 220 259
118 139 140 184 207 10 195 184 185 235 210 191 272 209 321 326 308 335 335 298 302 308 320 321 322 323 324 332 335 339 345 347 348 342 305 273 269 283 290 274 254 262 248 239
82 76 245 162 232 252 94 130 238 198 254 165 208 235 296 307 327 328 324 309 304 298 308 313 317 317 325 334 335 334 340 346 349 343 336 303 284 289 291 282 256 264 253 263
108 48 212 178 231 257 127 94 137 225 72 156 207 253 275 275 285 297 301 303 305 297 306 314 315 311 313 327 331 333 335 342 343 343 345 326 306 295 281 299 277 247 257 256
208 180 186 182 233 234 148 122 234 97 154 187 217 261 269 275 285 295 312 318 323 319 322 325 319 315 317 327 333 330 334 338 337 344 345 350 348 333 287 274 296 270 255 250
204 271 243 252 60 107 146 123 133 157 135 187 245 281 310 301 304 320 323 330 334 340 342 345 341 335 339 346 351 340 341 339 333 337 345 341 341 345 318 271 297 311 261 241
151 153 147 178 167 158 149 143 166 192 226 262 289 303 304 310 330 336 347 349 344 349 348 345 346 350 355 356 355 352 346 345 340 334 336 346 349 340 335 323 309 322 293 269
89 160 151 134 169 174 207 220 214 232 261 280 303 310 343 349 353 349 345 350 348 346 347 353 1 359 354 350 348 349 349 347 344 338 329 340 340 342 338 333 326 340 334 302
188 156 193 213 172 179 182 205 224 248 261 350 43 45 37 4 355 348 351 350 349 346 353 360 356 353 350 348 346 345 344 344 343 337 338 337 333 336 332 329 328 341 337 342